Regional Weather Roundup
Issued by NWS

Home | Current Version | Previous Version | Graphics & Text | Print | Product List | Glossary On
Versions: 1 2 3 4 5 6 7 8 9 10 11 12 13 14 15 16 17 18 19 20 21 22 23 24 25 26 27 28 29 30 31 32 33 34 35 36 37 38 39 40 41 42 43 44 45 46 47 48 49 50
000
ASUS43 KLMK 222210
RWRKY
KENTUCKY REGIONAL WEATHER ROUNDUP
NATIONAL WEATHER SERVICE LOUISVILLE KY
600 PM EDT MON SEP 22 2014

NOTE "FAIR" INDICATES FEW OR NO CLOUDS BELOW 12,000 FEET
WITH NO SIGNIFICANT WEATHER AND/OR OBSTRUCTIONS TO VISIBILITY.

KYZ001>023-026-027-061>063-070>075-222300-
WESTERN AND SOUTH CENTRAL KENTUCKY

CITY           SKY/WX    TMP DP  RH WIND       PRES   REMARKS
PADUCAH        SUNNY     76  47  35 N7        30.20S
HENDERSON      SUNNY     70  45  40 N8        30.21S
OWENSBORO      SUNNY     71  45  39 N8        30.21S
HOPKINSVILLE   SUNNY     72  45  37 N10       30.18F
BOWLING GREEN  SUNNY    N/A N/A N/A NE9       30.18F
GLASGOW        SUNNY     71  42  35 N9        30.19S
$$

KYZ024-025-028>034-038-045-046-053-222300-
NORTH CENTRAL KENTUCKY

CITY           SKY/WX    TMP DP  RH WIND       PRES   REMARKS
LOUISVILLE/SDF SUNNY     68  43  40 NE9       30.21S
LOUISVILLE/LOU SUNNY     68  44  42 N9        30.22S
FORT KNOX      SUNNY     66  46  48 N7        30.20S
$$

KYZ035>037-039>044-047>052-055>060-089>105-222300-
NORTHEAST KENTUCKY

CITY           SKY/WX    TMP DP  RH WIND       PRES   REMARKS
LEXINGTON      SUNNY     68  46  45 NW3       30.20F
COVINGTON      SUNNY     65  40  39 N8        30.22R
FRANKFORT      SUNNY     67  43  41 VRB7      30.20S
$$

KYZ054-064>069-076>088-106>120-222300-
SOUTHEAST KENTUCKY

CITY           SKY/WX    TMP DP  RH WIND       PRES   REMARKS
JACKSON        SUNNY     65  47  52 VRB3      30.19S
LONDON         SUNNY     68  46  45 NE7       30.19S
SOMERSET       SUNNY     68  41  37 NE7       30.20S
MIDDLESBORO    SUNNY     68  50  53 NW7       30.17S
MONTICELLO     CLEAR     71  43  36 N7        30.20S
$$



USA.gov is the U.S. government's official web portal to all federal, state and local government web resources and services.